STARLINK-30219 (57507 NORAD) Tracking and Keplerian Element Data

This shows tracking and keplerian element data for the satellite.

Feedback or suggestion? Click here.




ElementValue
Catalog57507
NameSTARLINK-30219
Epoch Orbit2533
Epoch Day13.11842147
Epoch Year2024
RAAN331.8416
Inclination43.0034
Eccentricity0.0001294
Argument of Perigee242.6375
Mean Anonmoly117.4336
Mean Motion15.02545692
Decay Rate0.00021889
L11 57507U 23113N 24013.11842147 .00021889 00000+0 16300-2 0 9991
L22 57507 43.0034 331.8416 0001294 242.6375 117.4336 15.02545692 25338



Live tracking and technical data element details for STARLINK-30219 (NORAD 57507). STARLINK-30219 can be tracked NOW for your location showing map with azimuth and elevation plus other details from your city location.







IsCatalogInMostPopularTable: catalog: 57507, numindb: 37
Update: records affected: 1



GetName: 57507 STARLINK-30219

Hit Count: updated at: Thu, 29 Feb 2024 12:44:10 GMT